Year,Month,Day,Hour,Minute,Value (Times are PST for temperature in C)
2018,08,08,00,00,18.70
2018,08,08,00,01,18.70
2018,08,08,00,02,18.60
2018,08,08,00,03,18.60
2018,08,08,00,04,18.60
2018,08,08,00,05,18.60
2018,08,08,00,06,18.60
2018,08,08,00,07,18.60
2018,08,08,00,08,18.60
2018,08,08,00,09,18.60
2018,08,08,00,10,18.50
2018,08,08,00,11,18.50
2018,08,08,00,12,18.50
2018,08,08,00,13,18.50
2018,08,08,00,14,18.50
2018,08,08,00,15,18.50
2018,08,08,00,16,18.50
2018,08,08,00,17,18.50
2018,08,08,00,18,18.50
2018,08,08,00,19,18.50
2018,08,08,00,20,18.50
2018,08,08,00,21,18.40
2018,08,08,00,22,18.40
2018,08,08,00,23,18.40
2018,08,08,00,24,18.40
2018,08,08,00,25,18.40
2018,08,08,00,26,18.40
2018,08,08,00,27,18.40
2018,08,08,00,28,18.40
2018,08,08,00,29,18.40
2018,08,08,00,30,18.40
2018,08,08,00,31,18.40
2018,08,08,00,32,18.40
2018,08,08,00,33,18.40
2018,08,08,00,34,18.30
2018,08,08,00,35,18.30
2018,08,08,00,36,18.30
2018,08,08,00,37,18.30
2018,08,08,00,38,18.30
2018,08,08,00,39,18.30
2018,08,08,00,40,18.30
2018,08,08,00,41,18.30
2018,08,08,00,42,18.20
2018,08,08,00,43,18.20
2018,08,08,00,44,18.20
2018,08,08,00,45,18.20
2018,08,08,00,46,18.20
2018,08,08,00,47,18.20
2018,08,08,00,48,18.20
2018,08,08,00,49,18.20
2018,08,08,00,50,18.20
2018,08,08,00,51,18.20
2018,08,08,00,52,18.20
2018,08,08,00,53,18.10
2018,08,08,00,54,18.10
2018,08,08,00,55,18.00
2018,08,08,00,56,17.90
2018,08,08,00,57,17.90
2018,08,08,00,58,17.90
2018,08,08,00,59,17.90
2018,08,08,01,00,17.80
2018,08,08,01,01,17.80
2018,08,08,01,02,17.80
2018,08,08,01,03,17.80
2018,08,08,01,04,17.80
2018,08,08,01,05,17.70
2018,08,08,01,06,17.70
2018,08,08,01,07,17.70
2018,08,08,01,08,17.70
2018,08,08,01,09,17.60
2018,08,08,01,10,17.60
2018,08,08,01,11,17.60
2018,08,08,01,12,17.60
2018,08,08,01,13,17.60
2018,08,08,01,14,17.60
2018,08,08,01,15,17.60
2018,08,08,01,16,17.60
2018,08,08,01,17,17.60
2018,08,08,01,18,17.60
2018,08,08,01,19,17.60
2018,08,08,01,20,17.60
2018,08,08,01,21,17.60
2018,08,08,01,22,17.60
2018,08,08,01,23,17.60
2018,08,08,01,24,17.60
2018,08,08,01,25,17.60
2018,08,08,01,26,17.60
2018,08,08,01,27,17.60
2018,08,08,01,28,17.50
2018,08,08,01,29,17.50
2018,08,08,01,30,17.50
2018,08,08,01,31,17.40
2018,08,08,01,32,17.40
2018,08,08,01,33,17.40
2018,08,08,01,34,17.40
2018,08,08,01,35,17.30
2018,08,08,01,36,17.30
2018,08,08,01,37,17.30
2018,08,08,01,38,17.30
2018,08,08,01,39,17.30
2018,08,08,01,40,17.30
2018,08,08,01,41,17.30
2018,08,08,01,42,17.30
2018,08,08,01,43,17.30
2018,08,08,01,44,17.30
2018,08,08,01,45,17.30
2018,08,08,01,46,17.30
2018,08,08,01,47,17.30
2018,08,08,01,48,17.30
2018,08,08,01,49,17.30
2018,08,08,01,50,17.30
2018,08,08,01,51,17.30
2018,08,08,01,52,17.30
2018,08,08,01,53,17.30
2018,08,08,01,54,17.30
2018,08,08,01,55,17.30
2018,08,08,01,56,17.30
2018,08,08,01,57,17.30
2018,08,08,01,58,17.30
2018,08,08,01,59,17.30
2018,08,08,02,00,17.30
2018,08,08,02,01,17.20
2018,08,08,02,02,17.20
2018,08,08,02,03,17.20
2018,08,08,02,04,17.20
2018,08,08,02,05,17.20
2018,08,08,02,06,17.10
2018,08,08,02,07,17.10
2018,08,08,02,08,17.00
2018,08,08,02,09,17.00
2018,08,08,02,10,17.00
2018,08,08,02,11,17.00
2018,08,08,02,12,17.00
2018,08,08,02,13,17.00
2018,08,08,02,14,17.00
2018,08,08,02,15,17.00
2018,08,08,02,16,17.00
2018,08,08,02,17,17.00
2018,08,08,02,18,17.00
2018,08,08,02,19,17.00
2018,08,08,02,20,16.90
2018,08,08,02,21,16.90
2018,08,08,02,22,16.90
2018,08,08,02,23,16.90
2018,08,08,02,24,16.90
2018,08,08,02,25,16.80
2018,08,08,02,26,16.80
2018,08,08,02,27,16.70
2018,08,08,02,28,16.70
2018,08,08,02,29,16.70
2018,08,08,02,30,16.60
2018,08,08,02,31,16.50
2018,08,08,02,32,16.40
2018,08,08,02,33,16.30
2018,08,08,02,34,16.30
2018,08,08,02,35,16.20
2018,08,08,02,36,16.20
2018,08,08,02,37,16.10
2018,08,08,02,38,16.10
2018,08,08,02,39,16.00
2018,08,08,02,40,15.90
2018,08,08,02,41,15.90
2018,08,08,02,42,15.80
2018,08,08,02,43,15.80
2018,08,08,02,44,15.80
2018,08,08,02,45,15.80
2018,08,08,02,46,15.70
2018,08,08,02,47,15.70
2018,08,08,02,48,15.60
2018,08,08,02,49,15.60
2018,08,08,02,50,15.60
2018,08,08,02,51,15.60
2018,08,08,02,52,15.60
2018,08,08,02,53,15.50
2018,08,08,02,54,15.50
2018,08,08,02,55,15.50
2018,08,08,02,56,15.50
2018,08,08,02,57,15.50
2018,08,08,02,58,15.50
2018,08,08,02,59,15.50
2018,08,08,03,00,15.50
2018,08,08,03,01,15.50
2018,08,08,03,02,15.50
2018,08,08,03,03,15.50
2018,08,08,03,04,15.50
2018,08,08,03,05,15.50
2018,08,08,03,06,15.50
2018,08,08,03,07,15.50
2018,08,08,03,08,15.50
2018,08,08,03,09,15.50
2018,08,08,03,10,15.40
2018,08,08,03,11,15.40
2018,08,08,03,12,15.40
2018,08,08,03,13,15.40
2018,08,08,03,14,15.40
2018,08,08,03,15,15.40
2018,08,08,03,16,15.40
2018,08,08,03,17,15.40
2018,08,08,03,18,15.40
2018,08,08,03,19,15.40
2018,08,08,03,20,15.40
2018,08,08,03,21,15.40
2018,08,08,03,22,15.40
2018,08,08,03,23,15.40
2018,08,08,03,24,15.40
2018,08,08,03,25,15.40
2018,08,08,03,26,15.40
2018,08,08,03,27,15.40
2018,08,08,03,28,15.40
2018,08,08,03,29,15.40
2018,08,08,03,30,15.40
2018,08,08,03,31,15.40
2018,08,08,03,32,15.40
2018,08,08,03,33,15.40
2018,08,08,03,34,15.40
2018,08,08,03,35,15.40
2018,08,08,03,36,15.30
2018,08,08,03,37,15.30
2018,08,08,03,38,15.30
2018,08,08,03,39,15.30
2018,08,08,03,40,15.30
2018,08,08,03,41,15.30
2018,08,08,03,42,15.30
2018,08,08,03,43,15.30
2018,08,08,03,44,15.30
2018,08,08,03,45,15.30
2018,08,08,03,46,15.30
2018,08,08,03,47,15.20
2018,08,08,03,48,15.20
2018,08,08,03,49,15.20
2018,08,08,03,50,15.20
2018,08,08,03,51,15.20
2018,08,08,03,52,15.20
2018,08,08,03,53,15.10
2018,08,08,03,54,15.10
2018,08,08,03,55,15.10
2018,08,08,03,56,15.10
2018,08,08,03,57,15.00
2018,08,08,03,58,15.00
2018,08,08,03,59,15.00
2018,08,08,04,00,14.90
2018,08,08,04,01,14.90
2018,08,08,04,02,14.90
2018,08,08,04,03,14.90
2018,08,08,04,04,14.80
2018,08,08,04,05,14.80
2018,08,08,04,06,14.80
2018,08,08,04,07,14.80
2018,08,08,04,08,14.80
2018,08,08,04,09,14.80
2018,08,08,04,10,14.80
2018,08,08,04,11,14.80
2018,08,08,04,12,14.70
2018,08,08,04,13,14.70
2018,08,08,04,14,14.70
2018,08,08,04,15,14.70
2018,08,08,04,16,14.70
2018,08,08,04,17,14.70
2018,08,08,04,18,14.70
2018,08,08,04,19,14.70
2018,08,08,04,20,14.70
2018,08,08,04,21,14.60
2018,08,08,04,22,14.60
2018,08,08,04,23,14.60
2018,08,08,04,24,14.60
2018,08,08,04,25,14.60
2018,08,08,04,26,14.60
2018,08,08,04,27,14.60
2018,08,08,04,28,14.60
2018,08,08,04,29,14.60
2018,08,08,04,30,14.60
2018,08,08,04,31,14.60
2018,08,08,04,32,14.60
2018,08,08,04,33,14.60
2018,08,08,04,34,14.60
2018,08,08,04,35,14.60
2018,08,08,04,36,14.50
2018,08,08,04,37,14.50
2018,08,08,04,38,14.50
2018,08,08,04,39,14.50
2018,08,08,04,40,14.50
2018,08,08,04,41,14.50
2018,08,08,04,42,14.50
2018,08,08,04,43,14.50
2018,08,08,04,44,14.50
2018,08,08,04,45,14.50
2018,08,08,04,46,14.50
2018,08,08,04,47,14.50
2018,08,08,04,48,14.50
2018,08,08,04,49,14.50
2018,08,08,04,50,14.50
2018,08,08,04,51,14.50
2018,08,08,04,52,14.50
2018,08,08,04,53,14.50
2018,08,08,04,54,14.50
2018,08,08,04,55,14.50
2018,08,08,04,56,14.50
2018,08,08,04,57,14.50
2018,08,08,04,58,14.50
2018,08,08,04,59,14.40
2018,08,08,05,00,14.40
2018,08,08,05,01,14.40
2018,08,08,05,02,14.40
2018,08,08,05,03,14.40
2018,08,08,05,04,14.40
2018,08,08,05,05,14.40
2018,08,08,05,06,14.40
2018,08,08,05,07,14.40
2018,08,08,05,08,14.40
2018,08,08,05,09,14.30
2018,08,08,05,10,14.30
2018,08,08,05,11,14.30
2018,08,08,05,12,14.30
2018,08,08,05,13,14.30
2018,08,08,05,14,14.30
2018,08,08,05,15,14.30
2018,08,08,05,16,14.30
2018,08,08,05,17,14.20
2018,08,08,05,18,14.20
2018,08,08,05,19,14.20
2018,08,08,05,20,14.20
2018,08,08,05,21,14.20
2018,08,08,05,22,14.20
2018,08,08,05,23,14.20
2018,08,08,05,24,14.20
2018,08,08,05,25,14.20
2018,08,08,05,26,14.20
2018,08,08,05,27,14.20
2018,08,08,05,28,14.20
2018,08,08,05,29,14.20
2018,08,08,05,30,14.20
2018,08,08,05,31,14.20
2018,08,08,05,32,14.20
2018,08,08,05,33,14.20
2018,08,08,05,34,14.20
2018,08,08,05,35,14.20
2018,08,08,05,36,14.20
2018,08,08,05,37,14.20
2018,08,08,05,38,14.20
2018,08,08,05,39,14.20
2018,08,08,05,40,14.20
2018,08,08,05,41,14.20
2018,08,08,05,42,14.20
2018,08,08,05,43,14.20
2018,08,08,05,44,14.20
2018,08,08,05,45,14.20
2018,08,08,05,46,14.20
2018,08,08,05,47,14.20
2018,08,08,05,48,14.20
2018,08,08,05,49,14.20
2018,08,08,05,50,14.10
2018,08,08,05,51,14.10
2018,08,08,05,52,14.10
2018,08,08,05,53,14.10
2018,08,08,05,54,14.10
2018,08,08,05,55,14.10
2018,08,08,05,56,14.10
2018,08,08,05,57,14.10
2018,08,08,05,58,14.10
2018,08,08,05,59,14.20
2018,08,08,06,00,14.20
2018,08,08,06,01,14.20
2018,08,08,06,02,14.20
2018,08,08,06,03,14.20
2018,08,08,06,04,14.20
2018,08,08,06,05,14.20
2018,08,08,06,06,14.20
2018,08,08,06,07,14.20
2018,08,08,06,08,14.20
2018,08,08,06,09,14.20
2018,08,08,06,10,14.20
2018,08,08,06,11,14.20
2018,08,08,06,12,14.10
2018,08,08,06,13,14.10
2018,08,08,06,14,14.10
2018,08,08,06,15,14.10
2018,08,08,06,16,14.10
2018,08,08,06,17,14.10
2018,08,08,06,18,14.10
2018,08,08,06,19,14.10
2018,08,08,06,20,14.10
2018,08,08,06,21,14.10
2018,08,08,06,22,14.10
2018,08,08,06,23,14.10
2018,08,08,06,24,14.10
2018,08,08,06,25,14.10
2018,08,08,06,26,14.10
2018,08,08,06,27,14.10
2018,08,08,06,28,14.10
2018,08,08,06,29,14.10
2018,08,08,06,30,14.20
2018,08,08,06,31,14.20
2018,08,08,06,32,14.20
2018,08,08,06,33,14.20
2018,08,08,06,34,14.20
2018,08,08,06,35,14.20
2018,08,08,06,36,14.20
2018,08,08,06,37,14.20
2018,08,08,06,38,14.20
2018,08,08,06,39,14.20
2018,08,08,06,40,14.20
2018,08,08,06,41,14.30
2018,08,08,06,42,14.30
2018,08,08,06,43,14.30
2018,08,08,06,44,14.30
2018,08,08,06,45,14.40
2018,08,08,06,46,14.40
2018,08,08,06,47,14.50
2018,08,08,06,48,14.50
2018,08,08,06,49,14.50
2018,08,08,06,50,14.60
2018,08,08,06,51,14.60
2018,08,08,06,52,14.60
2018,08,08,06,53,14.70
2018,08,08,06,54,14.70
2018,08,08,06,55,14.80
2018,08,08,06,56,14.80
2018,08,08,06,57,14.80
2018,08,08,06,58,14.90
2018,08,08,06,59,14.90
2018,08,08,07,00,15.00
2018,08,08,07,01,15.10
2018,08,08,07,02,15.10
2018,08,08,07,03,15.20
2018,08,08,07,04,15.20
2018,08,08,07,05,15.30
2018,08,08,07,06,15.40
2018,08,08,07,07,15.50
2018,08,08,07,08,15.60
2018,08,08,07,09,15.70
2018,08,08,07,10,15.80
2018,08,08,07,11,16.00
2018,08,08,07,12,16.10
2018,08,08,07,13,16.30
2018,08,08,07,14,16.30
2018,08,08,07,15,16.40
2018,08,08,07,16,16.50
2018,08,08,07,17,16.60
2018,08,08,07,18,16.70
2018,08,08,07,19,16.70
2018,08,08,07,20,16.70
2018,08,08,07,21,16.80
2018,08,08,07,22,16.90
2018,08,08,07,23,17.00
2018,08,08,07,24,17.00
2018,08,08,07,25,17.10
2018,08,08,07,26,17.20
2018,08,08,07,27,17.30
2018,08,08,07,28,17.30
2018,08,08,07,29,17.30
2018,08,08,07,30,17.40
2018,08,08,07,31,17.40
2018,08,08,07,32,17.50
2018,08,08,07,33,17.50
2018,08,08,07,34,17.60
2018,08,08,07,35,17.60
2018,08,08,07,36,17.70
2018,08,08,07,37,17.70
2018,08,08,07,38,17.80
2018,08,08,07,39,17.80
2018,08,08,07,40,17.90
2018,08,08,07,41,17.90
2018,08,08,07,42,17.90
2018,08,08,07,43,18.00
2018,08,08,07,44,18.10
2018,08,08,07,45,18.10
2018,08,08,07,46,18.10
2018,08,08,07,47,18.20
2018,08,08,07,48,18.20
2018,08,08,07,49,18.20
2018,08,08,07,50,18.20
2018,08,08,07,51,18.30
2018,08,08,07,52,18.30
2018,08,08,07,53,18.40
2018,08,08,07,54,18.40
2018,08,08,07,55,18.50
2018,08,08,07,56,18.50
2018,08,08,07,57,18.60
2018,08,08,07,58,18.60
2018,08,08,07,59,18.70
2018,08,08,08,00,18.70
2018,08,08,08,01,18.80
2018,08,08,08,02,18.80
2018,08,08,08,03,18.90
2018,08,08,08,04,19.00
2018,08,08,08,05,19.10
2018,08,08,08,06,19.10
2018,08,08,08,07,19.10
2018,08,08,08,08,19.20
2018,08,08,08,09,19.30
2018,08,08,08,10,19.40
2018,08,08,08,11,19.40
2018,08,08,08,12,19.50
2018,08,08,08,13,19.50
2018,08,08,08,14,19.60
2018,08,08,08,15,19.70
2018,08,08,08,16,19.70
2018,08,08,08,17,19.80
2018,08,08,08,18,19.90
2018,08,08,08,19,20.00
2018,08,08,08,20,20.10
2018,08,08,08,21,20.20
2018,08,08,08,22,20.30
2018,08,08,08,23,20.40
2018,08,08,08,24,20.50
2018,08,08,08,25,20.70
2018,08,08,08,26,20.80
2018,08,08,08,27,20.90
2018,08,08,08,28,21.00
2018,08,08,08,29,21.00
2018,08,08,08,30,21.10
2018,08,08,08,31,21.20
2018,08,08,08,32,21.20
2018,08,08,08,33,21.20
2018,08,08,08,34,21.30
2018,08,08,08,35,21.30
2018,08,08,08,36,21.30
2018,08,08,08,37,21.30
2018,08,08,08,38,21.30
2018,08,08,08,39,21.40
2018,08,08,08,40,21.50
2018,08,08,08,41,21.60
2018,08,08,08,42,21.70
2018,08,08,08,43,21.80
2018,08,08,08,44,21.90
2018,08,08,08,45,22.00
2018,08,08,08,46,22.00
2018,08,08,08,47,22.10
2018,08,08,08,48,22.10
2018,08,08,08,49,22.20
2018,08,08,08,50,22.20
2018,08,08,08,51,22.30
2018,08,08,08,52,22.30
2018,08,08,08,53,22.40
2018,08,08,08,54,22.40
2018,08,08,08,55,22.40
2018,08,08,08,56,22.40
2018,08,08,08,57,22.40
2018,08,08,08,58,22.40
2018,08,08,08,59,22.40
2018,08,08,09,00,22.40
2018,08,08,09,01,22.40
2018,08,08,09,02,22.30
2018,08,08,09,03,22.30
2018,08,08,09,04,22.30
2018,08,08,09,05,22.30
2018,08,08,09,06,22.30
2018,08,08,09,07,22.30
2018,08,08,09,08,22.30
2018,08,08,09,09,22.30
2018,08,08,09,10,22.30
2018,08,08,09,11,22.30
2018,08,08,09,12,22.30
2018,08,08,09,13,22.40
2018,08,08,09,14,22.40
2018,08,08,09,15,22.30
2018,08,08,09,16,22.30
2018,08,08,09,17,22.30
2018,08,08,09,18,22.30
2018,08,08,09,19,22.40
2018,08,08,09,20,22.40
2018,08,08,09,21,22.40
2018,08,08,09,22,22.40
2018,08,08,09,23,22.40
2018,08,08,09,24,22.40
2018,08,08,09,25,22.40
2018,08,08,09,26,22.40
2018,08,08,09,27,22.40
2018,08,08,09,28,22.40
2018,08,08,09,29,22.40
2018,08,08,09,30,22.40
2018,08,08,09,31,22.50
2018,08,08,09,32,22.50
2018,08,08,09,33,22.60
2018,08,08,09,34,22.60
2018,08,08,09,35,22.70
2018,08,08,09,36,22.70
2018,08,08,09,37,22.70
2018,08,08,09,38,22.70
2018,08,08,09,39,22.70
2018,08,08,09,40,22.60
2018,08,08,09,41,22.60
2018,08,08,09,42,22.60
2018,08,08,09,43,22.60
2018,08,08,09,44,22.70
2018,08,08,09,45,22.70
2018,08,08,09,46,22.70
2018,08,08,09,47,22.70
2018,08,08,09,48,22.80
2018,08,08,09,49,22.80
2018,08,08,09,50,22.90
2018,08,08,09,51,23.00
2018,08,08,09,52,23.10
2018,08,08,09,53,23.10
2018,08,08,09,54,23.20
2018,08,08,09,55,23.20
2018,08,08,09,56,23.30
2018,08,08,09,57,23.30
2018,08,08,09,58,23.30
2018,08,08,09,59,23.30
2018,08,08,10,00,23.30
2018,08,08,10,01,23.30
2018,08,08,10,02,23.20
2018,08,08,10,03,23.20
2018,08,08,10,04,23.20
2018,08,08,10,05,23.20
2018,08,08,10,06,23.20
2018,08,08,10,07,23.30
2018,08,08,10,08,23.30
2018,08,08,10,09,23.30
2018,08,08,10,10,23.30
2018,08,08,10,11,23.30
2018,08,08,10,12,23.30
2018,08,08,10,13,23.40
2018,08,08,10,14,23.40
2018,08,08,10,15,23.60
2018,08,08,10,16,23.60
2018,08,08,10,17,23.70
2018,08,08,10,18,23.70
2018,08,08,10,19,23.70
2018,08,08,10,20,23.70
2018,08,08,10,21,23.80
2018,08,08,10,22,23.80
2018,08,08,10,23,23.90
2018,08,08,10,24,23.90
2018,08,08,10,25,23.90
2018,08,08,10,26,23.90
2018,08,08,10,27,23.90
2018,08,08,10,28,24.00
2018,08,08,10,29,24.10
2018,08,08,10,30,24.10
2018,08,08,10,31,24.10
2018,08,08,10,32,24.20
2018,08,08,10,33,24.20
2018,08,08,10,34,24.20
2018,08,08,10,35,24.20
2018,08,08,10,36,24.10
2018,08,08,10,37,24.10
2018,08,08,10,38,24.10
2018,08,08,10,39,24.10
2018,08,08,10,40,24.00
2018,08,08,10,41,23.90
2018,08,08,10,42,23.90
2018,08,08,10,43,23.80
2018,08,08,10,44,23.80
2018,08,08,10,45,23.80
2018,08,08,10,46,23.80
2018,08,08,10,47,23.80
2018,08,08,10,48,23.80
2018,08,08,10,49,23.80
2018,08,08,10,50,23.90
2018,08,08,10,51,23.90
2018,08,08,10,52,24.00
2018,08,08,10,53,24.10
2018,08,08,10,54,24.10
2018,08,08,10,55,24.10
2018,08,08,10,56,24.10
2018,08,08,10,57,24.10
2018,08,08,10,58,24.10
2018,08,08,10,59,24.10
2018,08,08,11,00,24.10
2018,08,08,11,01,24.00
2018,08,08,11,02,23.90
2018,08,08,11,03,23.90
2018,08,08,11,04,23.80
2018,08,08,11,05,23.80
2018,08,08,11,06,23.70
2018,08,08,11,07,23.80
2018,08,08,11,08,23.80
2018,08,08,11,09,23.80
2018,08,08,11,10,23.70
2018,08,08,11,11,23.70
2018,08,08,11,12,23.80
2018,08,08,11,13,23.80
2018,08,08,11,14,23.90
2018,08,08,11,15,24.00
2018,08,08,11,16,24.10
2018,08,08,11,17,24.10
2018,08,08,11,18,24.10
2018,08,08,11,19,24.10
2018,08,08,11,20,24.10
2018,08,08,11,21,24.10
2018,08,08,11,22,24.10
2018,08,08,11,23,24.20
2018,08,08,11,24,24.20
2018,08,08,11,25,24.20
2018,08,08,11,26,24.30
2018,08,08,11,27,24.30
2018,08,08,11,28,24.40
2018,08,08,11,29,24.40
2018,08,08,11,30,24.40
2018,08,08,11,31,24.50
2018,08,08,11,32,24.50
2018,08,08,11,33,24.50
2018,08,08,11,34,24.40
2018,08,08,11,35,24.40
2018,08,08,11,36,24.30
2018,08,08,11,37,24.20
2018,08,08,11,38,24.20
2018,08,08,11,39,24.20
2018,08,08,11,40,24.20
2018,08,08,11,41,24.20
2018,08,08,11,42,24.30
2018,08,08,11,43,24.30
2018,08,08,11,44,24.40
2018,08,08,11,45,24.40
2018,08,08,11,46,24.50
2018,08,08,11,47,24.60
2018,08,08,11,48,24.60
2018,08,08,11,49,24.60
2018,08,08,11,50,24.60
2018,08,08,11,51,24.60
2018,08,08,11,52,24.70
2018,08,08,11,53,24.70
2018,08,08,11,54,24.60
2018,08,08,11,55,24.60
2018,08,08,11,56,24.60
2018,08,08,11,57,24.60
2018,08,08,11,58,24.60
2018,08,08,11,59,24.70
2018,08,08,12,00,24.70
2018,08,08,12,01,24.80
2018,08,08,12,02,24.80
2018,08,08,12,03,24.80
2018,08,08,12,04,24.90
2018,08,08,12,05,24.90
2018,08,08,12,06,25.00
2018,08,08,12,07,25.10
2018,08,08,12,08,25.10
2018,08,08,12,09,25.20
2018,08,08,12,10,25.20
2018,08,08,12,11,25.20
2018,08,08,12,12,25.30
2018,08,08,12,13,25.30
2018,08,08,12,14,25.40
2018,08,08,12,15,25.40
2018,08,08,12,16,25.40
2018,08,08,12,17,25.50
2018,08,08,12,18,25.50
2018,08,08,12,19,25.40
2018,08,08,12,20,25.40
2018,08,08,12,21,25.40
2018,08,08,12,22,25.40
2018,08,08,12,23,25.30
2018,08,08,12,24,25.30
2018,08,08,12,25,25.30
2018,08,08,12,26,25.30
2018,08,08,12,27,25.30
2018,08,08,12,28,25.30
2018,08,08,12,29,25.40
2018,08,08,12,30,25.40
2018,08,08,12,31,25.50
2018,08,08,12,32,25.60
2018,08,08,12,33,25.60
2018,08,08,12,34,25.70
2018,08,08,12,35,25.70
2018,08,08,12,36,25.80
2018,08,08,12,37,25.80
2018,08,08,12,38,25.80
2018,08,08,12,39,25.80
2018,08,08,12,40,25.80
2018,08,08,12,41,25.70
2018,08,08,12,42,25.70
2018,08,08,12,43,25.70
2018,08,08,12,44,25.70
2018,08,08,12,45,25.60
2018,08,08,12,46,25.60
2018,08,08,12,47,25.60
2018,08,08,12,48,25.70
2018,08,08,12,49,25.80
2018,08,08,12,50,25.90
2018,08,08,12,51,26.00
2018,08,08,12,52,26.00
2018,08,08,12,53,26.00
2018,08,08,12,54,25.90
2018,08,08,12,55,25.90
2018,08,08,12,56,25.80
2018,08,08,12,57,25.80
2018,08,08,12,58,25.80
2018,08,08,12,59,25.80
2018,08,08,13,00,25.80
2018,08,08,13,01,25.80
2018,08,08,13,02,25.90
2018,08,08,13,03,26.00
2018,08,08,13,04,26.00
2018,08,08,13,05,26.00
2018,08,08,13,06,26.10
2018,08,08,13,07,26.10
2018,08,08,13,08,26.10
2018,08,08,13,09,26.10
2018,08,08,13,10,26.10
2018,08,08,13,11,26.20
2018,08,08,13,12,26.30
2018,08,08,13,13,26.30
2018,08,08,13,14,26.40
2018,08,08,13,15,26.40
2018,08,08,13,16,26.40
2018,08,08,13,17,26.40
2018,08,08,13,18,26.40
2018,08,08,13,19,26.40
2018,08,08,13,20,26.40
2018,08,08,13,21,26.60
2018,08,08,13,22,26.60
2018,08,08,13,23,26.70
2018,08,08,13,24,26.80
2018,08,08,13,25,26.90
2018,08,08,13,26,26.90
2018,08,08,13,27,26.90
2018,08,08,13,28,26.90
2018,08,08,13,29,26.80
2018,08,08,13,30,26.80
2018,08,08,13,31,26.80
2018,08,08,13,32,26.80
2018,08,08,13,33,26.80
2018,08,08,13,34,26.80
2018,08,08,13,35,26.80
2018,08,08,13,36,26.90
2018,08,08,13,37,27.00
2018,08,08,13,38,27.10
2018,08,08,13,39,27.10
2018,08,08,13,40,27.10
2018,08,08,13,41,27.10
2018,08,08,13,42,27.00
2018,08,08,13,43,26.90
2018,08,08,13,44,26.90
2018,08,08,13,45,26.90
2018,08,08,13,46,27.00
2018,08,08,13,47,27.10
2018,08,08,13,48,27.10
2018,08,08,13,49,27.10
2018,08,08,13,50,27.10
2018,08,08,13,51,27.10
2018,08,08,13,52,27.20
2018,08,08,13,53,27.10
2018,08,08,13,54,27.10
2018,08,08,13,55,27.10
2018,08,08,13,56,27.10
2018,08,08,13,57,27.10
2018,08,08,13,58,27.10
2018,08,08,13,59,27.00
2018,08,08,14,00,26.90
2018,08,08,14,01,27.00
2018,08,08,14,02,27.10
2018,08,08,14,03,27.10
2018,08,08,14,04,27.10
2018,08,08,14,05,27.20
2018,08,08,14,06,27.20
2018,08,08,14,07,27.30
2018,08,08,14,08,27.30
2018,08,08,14,09,27.40
2018,08,08,14,10,27.50
2018,08,08,14,11,27.60
2018,08,08,14,12,27.70
2018,08,08,14,13,27.80
2018,08,08,14,14,27.90
2018,08,08,14,15,28.00
2018,08,08,14,16,28.00
2018,08,08,14,17,28.00
2018,08,08,14,18,28.10
2018,08,08,14,19,28.20
2018,08,08,14,20,28.30
2018,08,08,14,21,28.40
2018,08,08,14,22,28.50
2018,08,08,14,23,28.60
2018,08,08,14,24,28.60
2018,08,08,14,25,28.40
2018,08,08,14,26,28.40
2018,08,08,14,27,28.40
2018,08,08,14,28,28.40
2018,08,08,14,29,28.40
2018,08,08,14,30,28.50
2018,08,08,14,31,28.60
2018,08,08,14,32,28.60
2018,08,08,14,33,28.60
2018,08,08,14,34,28.60
2018,08,08,14,35,28.70
2018,08,08,14,36,28.70
2018,08,08,14,37,28.70
2018,08,08,14,38,28.70
2018,08,08,14,39,28.80
2018,08,08,14,40,28.70
2018,08,08,14,41,28.70
2018,08,08,14,42,28.80
2018,08,08,14,43,28.80
2018,08,08,14,44,28.90
2018,08,08,14,45,28.90
2018,08,08,14,46,28.90
2018,08,08,14,47,29.10
2018,08,08,14,48,29.20
2018,08,08,14,49,29.20
2018,08,08,14,50,29.20
2018,08,08,14,51,29.30
2018,08,08,14,52,29.20
2018,08,08,14,53,29.20
2018,08,08,14,54,29.20
2018,08,08,14,55,29.20
2018,08,08,14,56,29.20
2018,08,08,14,57,29.20
2018,08,08,14,58,29.20
2018,08,08,14,59,29.20
2018,08,08,15,00,29.30
2018,08,08,15,01,29.30
2018,08,08,15,02,29.40
2018,08,08,15,03,29.50
2018,08,08,15,04,29.50
2018,08,08,15,05,29.50
2018,08,08,15,06,29.50
2018,08,08,15,07,29.50
2018,08,08,15,08,29.60
2018,08,08,15,09,29.60
2018,08,08,15,10,29.60
2018,08,08,15,11,29.70
2018,08,08,15,12,29.70
2018,08,08,15,13,29.70
2018,08,08,15,14,29.70
2018,08,08,15,15,29.70
2018,08,08,15,16,29.70
2018,08,08,15,17,29.70
2018,08,08,15,18,29.80
2018,08,08,15,19,29.90
2018,08,08,15,20,29.90
2018,08,08,15,21,29.90
2018,08,08,15,22,29.90
2018,08,08,15,23,29.90
2018,08,08,15,24,29.90
2018,08,08,15,25,30.00
2018,08,08,15,26,30.10
2018,08,08,15,27,30.10
2018,08,08,15,28,30.20
2018,08,08,15,29,30.30
2018,08,08,15,30,30.20
2018,08,08,15,31,30.20
2018,08,08,15,32,30.20
2018,08,08,15,33,30.20
2018,08,08,15,34,30.20
2018,08,08,15,35,30.20
2018,08,08,15,36,30.20
2018,08,08,15,37,30.10
2018,08,08,15,38,30.10
2018,08,08,15,39,30.10
2018,08,08,15,40,30.10
2018,08,08,15,41,30.10
2018,08,08,15,42,30.10
2018,08,08,15,43,30.10
2018,08,08,15,44,30.10
2018,08,08,15,45,30.10
2018,08,08,15,46,30.10
2018,08,08,15,47,30.10
2018,08,08,15,48,30.10
2018,08,08,15,49,30.10
2018,08,08,15,50,30.20
2018,08,08,15,51,30.20
2018,08,08,15,52,30.30
2018,08,08,15,53,30.30
2018,08,08,15,54,30.30
2018,08,08,15,55,30.40
2018,08,08,15,56,30.40
2018,08,08,15,57,30.60
2018,08,08,15,58,30.60
2018,08,08,15,59,30.70
2018,08,08,16,00,30.70
2018,08,08,16,01,30.80
2018,08,08,16,02,30.90
2018,08,08,16,03,30.90
2018,08,08,16,04,30.90
2018,08,08,16,05,30.90
2018,08,08,16,06,30.90
2018,08,08,16,07,30.80
2018,08,08,16,08,30.80
2018,08,08,16,09,30.70
2018,08,08,16,10,30.70
2018,08,08,16,11,30.70
2018,08,08,16,12,30.80
2018,08,08,16,13,30.80
2018,08,08,16,14,30.90
2018,08,08,16,15,30.90
2018,08,08,16,16,31.00
2018,08,08,16,17,31.00
2018,08,08,16,18,31.10
2018,08,08,16,19,31.10
2018,08,08,16,20,31.10
2018,08,08,16,21,31.00
2018,08,08,16,22,31.00
2018,08,08,16,23,31.00
2018,08,08,16,24,31.00
2018,08,08,16,25,31.00
2018,08,08,16,26,31.00
2018,08,08,16,27,31.00
2018,08,08,16,28,30.90
2018,08,08,16,29,30.90
2018,08,08,16,30,30.90
2018,08,08,16,31,30.90
2018,08,08,16,32,30.90
2018,08,08,16,33,31.00
2018,08,08,16,34,31.00
2018,08,08,16,35,31.00
2018,08,08,16,36,31.10
2018,08,08,16,37,31.10
2018,08,08,16,38,31.20
2018,08,08,16,39,31.20
2018,08,08,16,40,31.20
2018,08,08,16,41,31.30
2018,08,08,16,42,31.30
2018,08,08,16,43,31.30
2018,08,08,16,44,31.30
2018,08,08,16,45,31.30
2018,08,08,16,46,31.30
2018,08,08,16,47,31.30
2018,08,08,16,48,31.40
2018,08,08,16,49,31.40
2018,08,08,16,50,31.40
2018,08,08,16,51,31.60
2018,08,08,16,52,31.60
2018,08,08,16,53,31.70
2018,08,08,16,54,31.80
2018,08,08,16,55,31.90
2018,08,08,16,56,31.90
2018,08,08,16,57,31.90
2018,08,08,16,58,31.90
2018,08,08,16,59,31.90
2018,08,08,17,00,31.80
2018,08,08,17,01,31.80
2018,08,08,17,02,31.80
2018,08,08,17,03,31.80
2018,08,08,17,04,31.80
2018,08,08,17,05,31.80
2018,08,08,17,06,31.80
2018,08,08,17,07,31.90
2018,08,08,17,08,31.90
2018,08,08,17,09,32.00
2018,08,08,17,10,32.10
2018,08,08,17,11,32.20
2018,08,08,17,12,32.20
2018,08,08,17,13,32.30
2018,08,08,17,14,32.30
2018,08,08,17,15,32.40
2018,08,08,17,16,32.50
2018,08,08,17,17,32.60
2018,08,08,17,18,32.60
2018,08,08,17,19,32.50